DAMPETORP Weather Reports


time (UTC)temp
C
wind
direction
speed
KPH
gust
KPH
rain 1hr
cm
rain 24hr
cm
rain mn
cm
humidity
%
barometer
mb
20260509061550 9 302 3.2 6.4 0.00 0.00 0.00 49 1023.9
20260509060037 9 295 3.2 8.0 0.00 0.00 0.00 50 1024.0
20260509054537 8 297 0.0 6.4 0.00 0.00 0.00 54 1024.1
20260509053032 8 308 0.0 3.2 0.00 0.00 0.00 55 1024.0
20260509051528 7 330 0.0 1.6 0.00 0.00 0.00 63 1024.1
20260509050027 6 330 0.0 1.6 0.00 0.00 0.00 69 1024.1
20260509044521 5 330 0.0 1.6 0.00 0.00 0.00 68 1024.2
20260509043019 3 330 0.0 0.0 0.00 0.00 0.00 75 1024.4
20260509041521 1 330 0.0 0.0 0.00 0.00 0.00 79 1024.3
20260509040033 3 330 0.0 0.0 0.00 0.00 0.00 73 1024.2
20260509034517 1 330 0.0 0.0 0.00 0.00 0.00 81 1024.3
20260509033016 -1 330 0.0 0.0 0.00 0.00 0.00 85 1024.4
20260509031525 -1 330 0.0 0.0 0.00 0.00 0.00 87 1024.4
20260509030014 -2 330 0.0 0.0 0.00 0.00 0.00 82 1024.3
20260509024511 -1 330 0.0 0.0 0.00 0.00 0.00 83 1024.4
20260509023010 -1 330 0.0 0.0 0.00 0.00 0.00 79 1024.3
20260509021508 -1 330 0.0 0.0 0.00 0.00 0.00 78 1024.4
20260509020005 -1 330 0.0 0.0 0.00 0.00 0.00 76 1024.5
20260509014507 -1 330 0.0 0.0 0.00 0.00 0.00 75 1024.5
20260509013103 0 330 0.0 0.0 0.00 0.00 0.00 73 1024.5
20260509011559 0 330 0.0 0.0 0.00 0.00 0.00 72 1024.6
20260509004606 0 330 0.0 0.0 0.00 0.00 0.00 66 1024.5
20260509003053 0 330 0.0 1.6 0.00 0.00 0.00 65 1024.5
20260509001548 1 330 0.0 1.6 0.00 0.00 0.00 63 1024.6
20260509000047 1 330 0.0 0.0 0.00 0.00 0.00 60 1024.7
20260508234549 2 330 0.0 0.0 0.00 0.00 0.00 57 1024.6
20260508233041 2 330 0.0 1.6 0.00 0.00 0.00 54 1024.6
20260508231535 3 330 0.0 1.6 0.00 0.00 0.00 49 1024.7
20260508230043 3 330 0.0 3.2 0.00 0.00 0.00 48 1024.8
20260508224531 3 330 0.0 1.6 0.00 0.00 0.00 49 1024.8
20260508223033 5 330 0.0 1.6 0.00 0.00 0.00 45 1024.8
20260508221527 5 328 0.0 3.2 0.00 0.00 0.00 42 1024.6
20260508220101 5 328 0.0 1.6 0.00 0.00 0.00 42 1024.6
20260508214521 6 355 0.0 6.4 0.00 0.00 0.00 38 1024.6
20260508213021 6 346 1.6 6.4 0.00 0.00 0.00 39 1024.6
20260508211524 6 339 0.0 8.0 0.00 0.00 0.00 39 1024.4
20260508210020 7 39 1.6 9.7 0.00 0.00 0.00 40 1024.4
20260508204521 7 346 0.0 9.7 0.00 0.00 0.00 41 1024.3
20260508203017 7 336 0.0 8.0 0.00 0.00 0.00 39 1024.2
20260508201521 7 315 1.6 8.0 0.00 0.00 0.00 40 1024.2
20260508200017 7 341 0.0 4.8 0.00 0.00 0.00 40 1024.1
20260508194514 8 342 0.0 1.6 0.00 0.00 0.00 38 1024.0
20260508193012 8 302 0.0 4.8 0.00 0.00 0.00 38 1024.0
20260508191517 9 295 1.6 8.0 0.00 0.00 0.00 36 1023.9
20260508190012 10 301 3.2 6.4 0.00 0.00 0.00 35 1023.8
20260508184512 11 319 0.0 6.4 0.00 0.00 0.00 34 1023.7
20260508183010 11 327 0.0 8.0 0.00 0.00 0.00 33 1023.6
20260508181507 12 303 3.2 11.3 0.00 0.00 0.00 31 1023.4
20260508180009 12 8 1.6 12.9 0.00 0.00 0.00 29 1023.2
20260508174509 13 301 4.8 9.7 0.00 0.00 0.00 28 1023.0
20260508173004 13 316 3.2 12.9 0.00 0.00 0.00 28 1023.0
20260508171504 13 285 6.4 14.5 0.00 0.00 0.00 26 1022.8
20260508170003 14 309 3.2 17.7 0.00 0.00 0.00 26 1022.8
20260508164503 15 328 3.2 14.5 0.00 0.00 0.00 27 1022.7
20260508163003 15 296 8.0 16.1 0.00 0.00 0.00 24 1022.6
20260508161501 16 326 6.4 16.1 0.00 0.00 0.00 25 1022.7
20260508160001 16 322 4.8 17.7 0.00 0.00 0.00 24 1022.6
20260508154600 16 355 3.2 20.9 0.00 0.00 0.00 24 1022.6
20260508153103 16 330 3.2 17.7 0.00 0.00 0.00 25 1022.6
20260508151602 17 329 1.6 12.9 0.00 0.00 0.00 25 1022.6
20260508150058 17 300 9.7 19.3 0.00 0.00 0.00 24 1022.6
20260508144605 17 307 4.8 16.1 0.00 0.00 0.00 23 1022.6
20260508143059 16 309 8.0 16.1 0.00 0.00 0.00 24 1022.7
20260508141600 17 310 3.2 16.1 0.00 0.00 0.00 24 1022.7
20260508140059 17 291 3.2 12.9 0.00 0.00 0.00 25 1022.7
20260508134606 17 311 1.6 11.3 0.00 0.00 0.00 28 1022.7
20260508133054 17 309 1.6 17.7 0.00 0.00 0.00 28 1022.8
20260508131553 17 355 8.0 16.1 0.00 0.00 0.00 27 1022.8
20260508130052 17 341 6.4 12.9 0.00 0.00 0.00 27 1022.9
20260508124551 17 309 6.4 19.3 0.00 0.00 0.00 28 1023.0
20260508123104 16 291 9.7 14.5 0.00 0.00 0.00 28 1023.1
20260508121551 16 311 6.4 14.5 0.00 0.00 0.00 29 1023.0
20260508120049 17 307 3.2 16.1 0.00 0.00 0.00 28 1023.1
20260508114552 17 307 6.4 12.9 0.00 0.00 0.00 29 1023.1
20260508113058 16 309 4.8 19.3 0.00 0.00 0.00 28 1023.1
20260508111547 17 320 4.8 11.3 0.00 0.00 0.00 28 1023.0
20260508110043 16 360 4.8 11.3 0.00 0.00 0.00 30 1023.0
20260508104543 16 323 3.2 12.9 0.00 0.00 0.00 28 1023.1
20260508103042 16 309 6.4 19.3 0.00 0.00 0.00 28 1023.2
20260508101539 15 324 6.4 25.7 0.00 0.00 0.00 28 1023.1
20260508100037 16 321 8.0 17.7 0.00 0.00 0.00 27 1023.2
20260508094549 16 331 4.8 16.1 0.00 0.00 0.00 26 1023.1
20260508093036 16 317 8.0 19.3 0.00 0.00 0.00 24 1023.2
20260508091540 15 300 11.3 22.5 0.00 0.00 0.00 23 1023.1
20260508090031 15 334 4.8 16.1 0.00 0.00 0.00 23 1023.2
20260508084529 15 312 6.4 12.9 0.00 0.00 0.00 24 1023.2
20260508083025 14 324 8.0 17.7 0.00 0.00 0.00 24 1023.2
20260508081552 13 327 9.7 14.5 0.00 0.00 0.00 24 1023.3
20260508080020 13 326 3.2 17.7 0.00 0.00 0.00 27 1023.3
20260508074518 12 305 3.2 14.5 0.00 0.00 0.00 26 1023.2
20260508073017 13 327 8.0 17.7 0.00 0.00 0.00 31 1023.2
20260508071526 12 293 3.2 14.5 0.00 0.00 0.00 39 1023.1
20260508070008 12 321 4.8 12.9 0.00 0.00 0.00 41 1022.9
20260508064509 11 302 3.2 11.3 0.00 0.00 0.00 44 1022.8
20260508063002 11 321 1.6 6.4 0.00 0.00 0.00 46 1022.6